SL-14 DEB, 45332

Orbit data source: Space-Track

SL-14 DEB, 45332 is space debris in LEO originally from a launch on Thu, 15 Aug 1991 UTC launched from the Plesetsk Missile And Space Complex (PKMTR). Debris objects in space refer to the collection of defunct objects orbiting the Earth. Examples of debris include non-operational satellites, rocket bodies, and fragments generated from explosions, collisions, or faulty payload assembly.

Loading next visibility...
Identifier
45332, 1991-056BW
Orbit
LEO
Country
Flag of CISCIS
Related business
Manufacturer
Unknown
Mission
Spacecraft
Bus & Motor
Unknown
Mass
Unknown
Launch date (UTC)
1991-08-15 (34 years ago)
Launch vehicle
Unknown
Launch site
Plesetsk Missile And Space Complex (PKMTR)
Object type
Payload
Rocket body
Debris
Shape & HBR
Unknown
Radar Cross Section
Small (<0.1 m²)

Expand to show TLE details & history
Last TLE update: 2 days ago

TLE from 2 days ago
0 SL-14 DEB
1 45332U 91056BW  25259.98518306  .00000989  00000-0  26065-2 0  9998
2 45332  82.5567 342.9290 0111120 158.2320 202.3577 13.13077820265616
Epoch: 2025-09-16T23:38Z
TLE epoch observation values (Epoch: 2025-09-16T23:38:39.816Z)
Latitude
-0.00004°
Longitude
-7.90454°
Altitude
1,292.221 km
Speed
7.173 km/s
True Right ascension
22h 51m 42s
True Declination
0° 00' 00"
Sunlit
Object was in full shadow at epoch
Visualization orbit readout
Latitude
Unknown
Longitude
Unknown
Altitude
Unknown
Speed
Unknown
Apparent Right ascension
Unknown
Apparent Declination
Unknown
Sunlit
N/A
Visualization observer readout
Local Sidereal Time
21:25:28
Azimuth
Unknown
Elevation
Unknown
Doppler factor
Unknown
Orbital elements
Apogee altitude
1,292.829 km
Perigee altitude
1,124.223 km
Semi-major axis
7,586.663 km
Eccentricity
0.01111
Inclination
82.5567°
RAAN
342.929°
Arg. of periapsis
158.232°
True anomaly
201.87949°
Mean anomaly
202.3577°
Eccentric anomaly
202.11798°
Mean motion
3.28448 °/min
Orbital period
109.61 mins
BSTAR
0.0026065
Loading maneuver chart data...
Computing Atmospheric mass density...
Loading historical data...
Loading historical data...
Loading historical data...
Loading historical data...
Loading historical data...
Loading historical data...
Loading historical data...

Documentation

Showing up to 5 results
|